Regional Weather Roundup
Issued by NWS

Home | Current Version | Previous Version | Text Only | Print | Product List | Glossary On
Versions: 1 2 3 4 5 6 7 8 9 10 11 12 13 14 15 16 17 18 19 20 21 22 23 24 25 26 27 28 29 30 31 32 33 34 35 36 37 38 39 40 41 42 43 44 45 46 47 48 49 50
715
ASUS43 KIND 282009
RWRIN

WEATHER ROUNDUP FOR INDIANA
NATIONAL WEATHER SERVICE INDIANAPOLIS IN
400 PM EDT SAT MAY 28 2016

NOTE: "FAIR" INDICATES FEW OR NO CLOUDS BELOW 12,000 FEET WITH NO
SIGNIFICANT WEATHER AND/OR OBSTRUCTIONS TO VISIBILITY.

* - STATION DOES NOT REPORT WEATHER SUCH AS PRECIPITATION OR FOG.

+ - STATION NOT QUALITY CONTROLLED BY THE NATIONAL WEATHER SERVICE.
    USE DATA WITH CAUTION...ESPECIALLY DEWPOINT AND RELATIVE
    HUMIDITY OBSERVATIONS.

INZ001>003-010>013-019-020-282100-
NORTHWEST INDIANA

CITY           SKY/WX    TMP DP  RH WIND       PRES   REMARKS
GARY /AIRPORT/ CLOUDY    79  72  78 S14G25    29.94F
KNOX *+          N/A     82  50  32 S18G28    29.97S
LA PORTE +     SUNNY     82  65  56 SW18G24   29.97F
MICHIGAN CITY+ CLOUDY    81  64  57 SW15      29.95F
MONTICELLO +   PTSUNNY   84  53  34 SW15G21   29.97S
RENSSELAER +   MOSUNNY   79  66  65 SW18G25   29.97F
VALPARAISO     MOSUNNY   80  63  55 SW20G25   29.96F

$$

LMZ046-743>745-282100-
SOUTHERN LAKE MICHIGAN

STATION/POSITION TIME  TEMP    WIND        PRES    WAVE
                       AIR SEA DIR/SP/G            HT
                 (UTC) (F)     (DEG/KT/KT) (MB)    (FT)
BURNS HARBOR     1900   75     190/ 18/ 27 1014.2S
MICHIGAN CITY    1900   76     170/ 19/ 24   N/A
5NW MICH CITY    2000   70 58  220/ 14/ 17   N/A     2

$$

INZ004-005-014>016-021>024-282100-
NORTH CENTRAL INDIANA

CITY           SKY/WX    TMP DP  RH WIND       PRES   REMARKS
ELKHART        CLOUDY    84  68  58 SW13      29.98S
GOSHEN         CLOUDY    85  58  39 SW20G28   29.97F
LOGANSPORT +   MOSUNNY   82  57  42 S21G30    29.99S
PERU/GRISSOM   CLOUDY    85  61  43 SW18G25   29.98S
ROCHESTER +    CLOUDY    86  59  39 SW16G22   29.98F
SOUTH BEND     CLOUDY    83  63  50 S14       29.97F
WARSAW +       CLOUDY    82  59  44 SW6G18    29.99S

$$

INZ006>009-017-018-025>027-282100-
NORTHEAST INDIANA

CITY           SKY/WX    TMP DP  RH WIND       PRES   REMARKS
ANGOLA *+        N/A     86  61  42 S17       29.99F
FORT WAYNE     CLOUDY    86  60  41 SW21G26   30.01S
HUNTINGTON +   MOSUNNY   85  57  38 SW14G25   30.00S

$$

INZ028-029-035-036-043>045-051>053-282100-
WEST CENTRAL INDIANA

CITY           SKY/WX    TMP DP  RH WIND       PRES   REMARKS
CRAWFORDSVL +  PTSUNNY   80  64  57 S16G22    29.99S
GREENCASTLE +  HVY RAIN  70  68  94 S17G35    30.04R VSB 3/4
LAFAYETTE      MOSUNNY   83  61  47 SW15G22   29.97F
TERRE HAUTE    CLOUDY    81  58  45 S14G22    29.99S

$$

INZ030>032-037>040-046>048-054>057-064-065-282100-
CENTRAL INDIANA

CITY           SKY/WX    TMP DP  RH WIND       PRES   REMARKS
ANDERSON       PTSUNNY   82  64  54 S12G20    30.04
CP ATTERBURY + CLOUDY    77  68  73 S7        30.04F
COLUMBUS       MOSUNNY   81  64  57 SW16G23   30.04S
FISHERS *+     PTSUNNY   81  66  61 SW12G18   30.02F
FRANKFORT +      N/A     84  42  23 SW12G18   30.01S
GREENWOOD *+   CLOUDY    81  66  61 S9        30.03F
INDIANAPOLIS   CLOUDY    81  65  58 S18G26    30.00S
-EAGLE CREEK   CLOUDY    83  63  50 S14G26    30.00F
KOKOMO *+      CLOUDY    82  63  51 S13G29    29.99F
MARION +       CLOUDY    85  58  39 SW16G28   30.01F
SHELBYVILLE    MOSUNNY   83  64  52 S13       30.02F
ZIONSVILLE +   CLOUDY    83  61  47 S17G23    30.02S

$$

INZ033-034-041-042-049-050-058-059-282100-
EAST CENTRAL INDIANA

CITY           SKY/WX    TMP DP  RH WIND       PRES   REMARKS
MUNCIE         CLOUDY    85  62  46 SW7G20    30.02F

$$

INZ060-061-067>069-081>083-085>088-282100-
SOUTHWEST INDIANA

CITY           SKY/WX    TMP DP  RH WIND       PRES   REMARKS
EVANSVILLE     CLOUDY    81  64  56 SW17G26   30.02S
HUNTINGBURG *+ CLOUDY    81  66  61 S10G18    30.03F
WASHINGTON +   CLOUDY    80  69  70 S15       30.01S

$$

INZ062-063-066-070>080-084-089>092-282100-
SOUTH CENTRAL AND SOUTHEAST INDIANA

CITY           SKY/WX    TMP DP  RH WIND       PRES   REMARKS
BEDFORD +      MOSUNNY   79  72  78 SE10      30.04S
BLOOMINGTON    CLOUDY    80  65  59 S14       30.03R
MADISON *+     CLOUDY    81  64  57 SE6       30.08F
NORTH VERNON + CLOUDY    81  72  74 CALM      30.06S
SEYMOUR +      CLOUDY    81  66  61 SW9       30.05R

$$





USA.gov is the U.S. government's official web portal to all federal, state and local government web resources and services.